This demonstration page uses our WeatherBlox Daily Observations layout. Learn more.

Left ArrowRight Arrow

44.8408, -93.29828

Hourly Observations for December 10, 2022

Temp ( °F °C ) Dew Point ( °F °C ) Humidity (%) Winds ( mph kmh ) Pressure ( in mb ) Visibility ( mi km ) Precip ( " mm )
12:53 am 00:53 Cloudy with Light Snow 31 -0.6 27 -2.8 85 85 ESE 13 20 30.21 1023 4 6 0.01 0.13
1:22 am 01:22 Cloudy with Light Snow 31 -0.6 27 -2.8 85 85 ESE 13 20 30.24 1024 3 5 0.01 0.13
1:32 am 01:32 Cloudy with Light Snow 31 -0.6 27 -2.8 85 85 ESE 13 20 30.23 1024 5 8 0.01 0.13
1:53 am 01:53 Cloudy with Light Snow 31 -0.6 27 -2.8 85 85 ESE 13 20 30.22 1023 5 8 0.01 0.13
2:53 am 02:53 Cloudy with Light Snow 30 -1.1 26 -3.3 85 85 ESE 16 26 30.21 1023 3 5 0.01 0.13
3:53 am 03:53 Cloudy with Light Snow 31 -0.6 27 -2.8 85 85 SE 14 22 30.19 1022 5 8 0.01 0.13
4:31 am 04:31 Cloudy with Light Snow 31 -0.6 27 -2.8 85 85 SE 12 19 30.21 1023 4 6 0.01 0.13
4:53 am 04:53 Cloudy with Light Snow 31 -0.6 28 -2.2 89 89 SE 13 20 30.18 1022 4 6 0.01 0.13
5:06 am 05:06 Cloudy with Light Snow 31 -0.6 27 -2.8 85 85 SE 13 20 30.19 1022 6 10 0.01 0.13
5:53 am 05:53 Cloudy with Light Snow 31 -0.6 27 -2.8 85 85 SE 15 24 30.16 1021 6 10 0.01 0.13
6:31 am 06:31 Cloudy 31 -0.6 27 -2.8 85 85 SE 13 20 30.18 1022 9 14 0.01 0.13
6:50 am 06:50 Cloudy with Light Freezing Drizzle 30 -1 27 -3 86 86 SE 16 26 30.18 1022 10 16 0.01 0.13
6:56 am 06:56 Cloudy 31 -0.6 27 -2.8 85 85 SE 14 22 30.18 1022 10 16 0.01 0.13
7:26 am 07:26 Cloudy with Light Snow 31 -0.6 28 -2.2 89 89 SE 9 15 30.18 1022 4 6 0.01 0.13
7:53 am 07:53 Cloudy 31 -0.6 28 -2.2 89 89 SE 10 17 30.16 1021 9 14 0.01 0.13
8:21 am 08:21 Cloudy with Mist and Fog 32 0 28 -2.2 85 85 SE 10 17 30.18 1022 5 8 0.00 0.00
8:34 am 08:34 Cloudy with Light Snow 32 0 28 -2.2 85 85 SSE 10 17 30.18 1022 3 5 0.01 0.13
8:53 am 08:53 Cloudy with Mist and Fog 32 0 29 -1.7 88 88 SSE 12 19 30.16 1021 5 8 0.01 0.13
9:19 am 09:19 Cloudy with Mist and Fog 32 0 29 -1.7 88 88 SSE 9 15 30.18 1022 5 8 0.00 0.00
9:31 am 09:31 Cloudy with Mist and Fog 32 0 29 -1.7 88 88 SSE 9 15 30.18 1022 5 8 0.00 0.00
9:37 am 09:37 Cloudy with Light Snow 32 0 29 -1.7 88 88 SE 9 15 30.18 1022 5 8 0.01 0.13
9:53 am 09:53 Cloudy with Light Snow 32 0 30 -1.1 92 92 SE 10 17 30.16 1021 5 8 0.01 0.13
10:12 am 10:12 Cloudy 32 0 30 -1.1 92 92 SSE 9 15 30.18 1022 7 11 0.01 0.13
10:53 am 10:53 Cloudy 33 0.6 30 -1.1 88 88 S 7 11 30.16 1021 9 14 0.01 0.13
11:21 am 11:21 Cloudy with Light Snow 33 0.6 30 -1.1 88 88 SE 10 17 30.15 1021 6 10 0.01 0.13
11:37 am 11:37 Cloudy with Mist and Fog 33 0.6 30 -1.1 88 88 SE 8 13 30.14 1021 6 10 0.01 0.13
11:53 am 11:53 Cloudy with Light Snow 33 0.6 31 -0.6 92 92 SSE 8 13 30.13 1020 5 8 0.01 0.13
12:53 pm 12:53 Cloudy with Light Snow 33 0.6 32 0 96 96 Calm 30.12 1020 5 8 0.01 0.13
1:23 pm 13:23 Cloudy with Mist and Fog 34 1.1 32 0 92 92 S 3 6 30.13 1020 6 10 0.01 0.13
1:53 pm 13:53 Cloudy 34 1.1 31 -0.6 88 88 S 5 7 30.11 1020 8 13 0.01 0.25
2:53 pm 14:53 Cloudy 35 1.7 30 -1.1 82 82 SSW 6 9 30.10 1019 10 16 0.00 0.00
3:53 pm 15:53 Cloudy 34 1.1 30 -1.1 85 85 SW 5 7 30.12 1020 9 14 0.00 0.00
4:53 pm 16:53 Cloudy 34 1.1 31 -0.6 88 88 SW 3 6 30.13 1020 10 16 0.00 0.00
5:53 pm 17:53 Cloudy 34 1.1 30 -1.1 85 85 WSW 5 7 30.14 1021 10 16 0.00 0.00
6:53 pm 18:53 Cloudy 33 0.6 31 -0.6 92 92 Calm 30.15 1021 9 14 0.00 0.00
7:53 pm 19:53 Cloudy 33 0.6 31 -0.6 92 92 Calm 30.15 1021 8 13 0.00 0.00
8:53 pm 20:53 Cloudy 33 0.6 31 -0.6 92 92 Calm 30.16 1021 8 13 0.00 0.00
9:53 pm 21:53 Cloudy 33 0.6 30 -1.1 88 88 W 6 9 30.17 1022 7 11 0.00 0.00
10:53 pm 22:53 Cloudy 33 0.6 30 -1.1 88 88 W 6 9 30.18 1022 7 11 0.00 0.00
11:53 pm 23:53 Cloudy with Mist and Fog 33 0.6 31 -0.6 92 92 NNW 3 6 30.18 1022 6 10 0.00 0.00

Powered by AerisWeather